Wind_Speed
15 14 12 10 9 8 8 7 7 6 6 6 6 6 6 6 5 5 5 5 6 7 9 12 14 15 15 16 17 18 21 22 23
18 16 14 12 11 10 9 9 8 8 8 7 7 7 6 6 6 6 6 6 7 9 11 13 15 16 16 16 18 20 22 23 24
21 19 17 14 13 12 11 10 10 10 10 9 8 7 8 8 8 7 7 7 8 10 12 14 15 16 16 17 19 21 22 23 25
23 21 19 17 15 14 13 12 12 12 11 9 9 9 9 9 9 8 8 9 10 11 13 14 15 16 17 18 20 21 22 23 25
26 24 21 20 18 17 15 13 13 13 11 10 10 10 10 10 9 9 10 10 12 13 13 14 15 16 17 18 20 21 22 23 26
28 26 24 22 20 19 17 16 15 14 13 12 11 11 11 11 11 11 12 13 14 14 15 16 17 17 18 20 21 22 23 25 27
30 28 26 24 22 20 19 19 17 16 15 14 13 13 13 13 13 14 14 15 16 16 17 18 19 19 20 21 22 24 24 26 28
32 30 28 26 23 22 21 21 19 19 17 17 16 16 16 16 16 17 17 18 18 19 19 19 21 22 21 24 25 25 25 27 28
33 30 29 27 25 24 23 23 22 21 20 20 19 18 18 19 19 20 20 20 21 21 21 22 23 23 24 26 25 26 27 29 32
35 33 31 28 28 28 27 26 25 24 24 23 22 22 21 22 22 22 23 23 23 23 23 24 24 25 27 27 28 28 30 34 39
38 34 32 31 31 31 30 30 29 28 27 26 25 25 24 24 25 25 25 25 26 26 26 27 27 29 31 29 29 31 35 38 35
39 35 37 36 34 34 33 33 31 31 30 29 29 28 28 27 28 27 27 27 29 29 29 29 30 30 31 34 33 35 35 38 33
39 42 39 37 37 36 36 35 35 34 33 32 32 32 31 30 31 31 31 31 32 31 32 32 32 32 33 33 35 37 39 38 37
45 45 41 39 39 38 37 37 37 35 34 34 34 35 36 34 34 33 34 36 35 35 35 36 36 36 36 36 38 38 41 43 42
45 45 42 40 39 39 38 39 39 36 35 35 35 37 38 36 35 36 37 39 37 38 39 41 39 39 40 42 38 36 41 45 41
43 40 39 40 41 40 40 42 40 39 37 36 37 39 39 37 37 38 39 40 40 41 42 41 41 43 38 37 40 43 44 46 39
38 34 42 47 44 43 41 41 41 41 38 38 38 41 39 38 37 38 40 42 41 40 42 41 40 41 44 45 45 46 47 45 40
34 32 32 39 42 46 46 43 41 41 42 43 42 41 41 37 38 40 42 43 43 42 43 44 43 45 49 48 50 50 46 43 41
40 41 38 35 47 42 41 38 35 32 30 29 33 37 42 43 42 41 44 46 45 45 44 48 47 47 50 51 48 49 46 44 42
45 46 42 45 39 40 38 40 41 36 38 37 34 35 37 38 39 38 37 44 44 44 41 41 45 46 46 48 49 48 46 45 45
Wind_Direction
229 228 224 232 242 252 257 260 263 268 270 279 285 288 288 287 288 290 292 298 303 310 321 328 330 334 335 334 330 330 333 336 335
228 231 231 232 241 250 256 258 264 271 273 276 284 293 290 285 284 283 288 292 298 306 317 324 327 330 333 333 331 329 330 334 335
229 230 232 234 238 242 249 255 259 261 265 270 274 276 278 279 283 284 282 280 288 300 311 320 324 326 328 331 332 332 332 335 336
230 232 232 236 237 241 243 250 259 262 261 263 265 267 269 273 275 274 276 282 291 301 310 317 320 322 326 327 329 332 333 334 336
235 233 235 236 239 241 245 247 256 259 258 260 261 264 265 266 270 274 280 287 292 296 304 309 312 316 320 321 323 324 326 331 334
236 237 236 237 240 243 247 249 253 257 258 258 258 259 262 265 267 272 279 285 288 292 298 300 304 309 313 315 318 321 326 329 329
236 237 237 239 239 242 245 249 251 254 257 258 257 257 257 261 266 269 273 278 283 288 291 297 301 302 305 312 314 317 321 324 326
235 235 236 238 238 241 245 249 252 253 252 254 254 254 258 261 264 269 273 278 280 284 288 292 294 298 304 308 309 312 317 322 323
234 233 235 235 239 242 244 247 249 251 253 253 252 253 256 260 264 268 272 278 283 286 288 288 290 295 300 301 305 308 312 317 320
233 232 233 235 239 242 243 245 246 247 249 251 252 253 256 261 265 270 274 276 278 282 284 286 290 293 294 299 302 303 307 312 318
230 230 232 236 239 241 244 246 247 247 248 249 253 255 259 263 268 270 272 274 278 281 282 284 288 291 294 296 299 303 308 308 312
227 231 234 236 240 244 247 247 249 251 251 251 254 255 258 262 267 270 272 273 275 277 278 280 282 285 291 297 302 308 310 313 314
228 234 234 237 241 245 248 250 250 252 253 254 256 258 260 262 265 268 271 273 273 275 278 281 285 286 288 293 299 305 308 310 311
231 236 237 239 243 245 249 254 255 253 254 256 258 261 261 262 265 268 272 273 275 277 280 281 283 285 286 290 296 302 305 307 308
229 234 238 242 246 248 250 252 255 255 255 255 258 261 262 264 266 269 270 273 275 278 280 282 283 285 287 290 291 294 300 303 305
234 237 244 245 245 251 254 256 257 257 254 257 260 264 265 265 266 269 273 275 277 279 281 283 285 287 286 287 292 301 304 304 301
237 243 247 249 250 253 253 254 256 259 258 256 259 262 263 264 267 270 273 275 277 280 284 284 285 284 288 289 293 299 300 299 300
230 238 247 251 253 250 253 254 256 260 263 260 260 259 261 263 265 268 270 272 276 281 285 286 284 285 288 291 295 297 297 296 294
227 231 241 241 244 248 252 247 253 251 254 257 259 257 258 260 264 270 275 280 281 281 283 284 285 287 287 289 290 295 296 293 291
233 241 240 246 246 240 245 253 255 245 251 254 249 255 256 261 263 267 270 278 278 279 280 283 285 285 285 285 286 288 289 289 285
Height
5877 5878 5878 5878 5879 5879 5879 5879 5879 5879 5878 5878 5878 5878 5878 5877 5877 5877 5876 5876 5875 5874 5873 5872 5871 5870 5868 5866 5864 5862 5859 5856 5854
5874 5875 5876 5876 5877 5877 5877 5877 5877 5878 5877 5877 5877 5877 5877 5876 5875 5875 5874 5874 5873 5872 5872 5871 5870 5868 5867 5864 5863 5860 5857 5855 5852
5870 5872 5873 5873 5874 5874 5875 5876 5875 5875 5875 5875 5875 5875 5875 5875 5874 5873 5873 5872 5871 5871 5870 5869 5868 5866 5864 5863 5861 5858 5855 5853 5850
5867 5868 5869 5870 5871 5872 5872 5872 5873 5873 5873 5873 5873 5873 5873 5873 5872 5872 5871 5871 5870 5869 5868 5867 5866 5864 5863 5861 5859 5857 5854 5851 5848
5864 5864 5866 5867 5868 5869 5869 5869 5870 5870 5870 5870 5870 5870 5870 5870 5870 5870 5870 5869 5868 5867 5866 5865 5863 5862 5861 5858 5856 5854 5851 5849 5845
5860 5861 5862 5863 5864 5865 5866 5867 5867 5867 5867 5867 5867 5867 5867 5867 5867 5867 5867 5866 5865 5864 5863 5862 5861 5860 5858 5856 5854 5851 5849 5846 5843
5855 5856 5858 5859 5860 5861 5862 5863 5863 5864 5864 5864 5864 5864 5865 5865 5865 5864 5863 5863 5862 5861 5861 5860 5859 5857 5854 5853 5851 5848 5846 5843 5839
5850 5851 5853 5855 5855 5857 5858 5859 5859 5859 5859 5860 5861 5861 5862 5862 5861 5861 5861 5860 5859 5858 5857 5856 5855 5854 5852 5850 5848 5845 5842 5839 5835
5845 5846 5848 5849 5851 5852 5853 5854 5854 5855 5855 5856 5857 5857 5858 5859 5858 5857 5857 5856 5856 5855 5853 5852 5851 5849 5848 5845 5843 5841 5838 5835 5831
5839 5840 5842 5844 5845 5847 5848 5848 5849 5850 5851 5851 5852 5852 5853 5854 5854 5854 5853 5852 5851 5850 5848 5847 5845 5844 5842 5840 5838 5837 5834 5830 5827
5832 5834 5836 5838 5840 5842 5843 5844 5844 5845 5846 5847 5847 5847 5848 5849 5850 5850 5849 5848 5847 5846 5844 5843 5841 5838 5836 5835 5833 5830 5828 5824 5821
5825 5829 5831 5832 5834 5836 5837 5838 5840 5841 5841 5842 5842 5841 5841 5842 5843 5844 5843 5842 5841 5841 5840 5838 5836 5834 5832 5829 5827 5826 5822 5819 5814
5818 5822 5823 5825 5827 5829 5831 5833 5834 5835 5836 5836 5837 5837 5836 5835 5835 5836 5836 5836 5835 5834 5833 5832 5830 5828 5826 5823 5820 5818 5815 5812 5809
5809 5815 5817 5818 5820 5822 5824 5826 5828 5828 5829 5830 5830 5830 5829 5828 5828 5828 5828 5828 5827 5827 5825 5824 5822 5820 5818 5816 5813 5811 5808 5805 5801
5800 5806 5810 5812 5814 5816 5816 5818 5820 5821 5821 5822 5823 5822 5822 5822 5821 5821 5819 5820 5819 5819 5817 5817 5815 5813 5811 5809 5806 5802 5799 5797 5793
5796 5800 5803 5807 5807 5808 5809 5811 5812 5813 5813 5813 5814 5815 5815 5815 5812 5811 5812 5813 5811 5811 5810 5808 5807 5805 5802 5801 5800 5797 5795 5792 5787
5789 5792 5795 5798 5800 5801 5801 5802 5803 5804 5805 5804 5804 5806 5806 5805 5804 5804 5803 5803 5802 5801 5801 5800 5798 5797 5796 5792 5790 5786 5784 5782 5777
5782 5786 5789 5791 5791 5792 5793 5793 5796 5797 5797 5796 5795 5797 5797 5797 5796 5795 5794 5792 5792 5791 5791 5791 5788 5787 5785 5783 5780 5777 5774 5772 5769
5775 5778 5780 5782 5783 5784 5784 5785 5787 5787 5788 5787 5786 5787 5787 5786 5786 5787 5786 5785 5784 5783 5781 5780 5777 5774 5773 5772 5770 5767 5765 5763 5760
5768 5771 5772 5774 5773 5774 5775 5776 5777 5776 5779 5780 5778 5777 5777 5778 5777 5777 5777 5776 5774 5773 5771 5770 5770 5768 5764 5762 5758 5756 5755 5753 5751